Location: Ladrillo (historical)
(32.8195°N, 117.2231°W)
Time: 11:47:32
(UTC+00:00)

Vanguard 3 - Pass Details

Date: 05 March 2021
Orbit: 508 x 3262 km, 33.3° (Epoch: 19 April)

Event Time Altitude Azimuth Distance (km) Brightness Sun altitude
Rises 18:25:20 0° 192° (SSW) 6,238 12.1 45.3°
Reaches altitude 10° 18:30:37 10° 179° (S) 5,600 12.2 45.9°
Maximum altitude 18:43:13 23° 134° (SE) 5,056 12.5 47.3°
Drops below altitude 10° 18:56:43 10° 91° (E) 6,109 12.0 48.6°
Sets 19:02:41 0° 79° (E) 6,927 12.0 49.1°
